Regional Weather Roundup
Issued by NWS Charleston, SC

Home | Current Version | Previous Version | Text Only | Print | Product List | Glossary On
Versions: 1 2 3 4 5 6 7 8 9 10 11 12 13 14 15 16 17 18 19 20 21 22 23 24 25 26 27 28 29 30 31 32 33 34 35 36 37 38 39 40 41 42 43 44 45 46 47 48 49 50
000
ASUS42 KCHS 190527
RWRCHS

REGIONAL WEATHER ROUNDUP
NATIONAL WEATHER SERVICE CHARLESTON SC
1200 AM EST SUN NOV 19 2017

NOTE: "FAIR" INDICATES FEW OR NO CLOUDS BELOW 12,000 FEET WITH NO
SIGNIFICANT WEATHER AND/OR OBSTRUCTIONS TO VISIBILITY.

NOT ALL STATIONS ARE QUALITY CONTROLLED. USE DATA WITH CAUTION...
ESPECIALLY DEWPOINT OBSERVATIONS.

SCZ027-030-031-034>040-042>050-190600-
...SOUTHEAST SOUTH CAROLINA...

CITY           SKY/WX    TMP DP  RH WIND       PRES   REMARKS
N CHARLESTON   CLEAR     64  59  83 SW13      29.80F
WATERFRONT PRK NOT AVBL
JOHNS ISLAND   FAIR      66  61  82 SW15G22   29.80F
PINOPOLIS        N/A     64  59  82 S6        29.69
MONCKS CORNER  FAIR      63  57  82 S12       29.77F
SUMMERVILLE    FAIR      63  55  77 S7        29.78F
BEAUFORT MCAS  NOT AVBL
BEAUFORT ARPT  FAIR      64  55  72 SW8       29.81F
HILTON HEAD IS CLEAR     66  57  72 SW13G23   29.83F
WALTERBORO     CLEAR     61  55  82 S10G17    29.78F
ALLENDALE      FAIR      64  55  72 VRB7G15   29.74F

...SOUTHERN MIDLANDS AND PEE DEE...

CITY           SKY/WX    TMP DP  RH WIND       PRES   REMARKS
GEORGETOWN     FAIR      64  61  88 SW15G23   29.78F
KINGSTREE      FAIR      63  55  77 S12       29.73F
ORANGEBURG     PTCLDY    62  53  72 S17       29.73F
BARNWELL         N/A     66  57  72 S13G20    29.72F
AIKEN          FAIR      63  54  72 S17G24    29.71S
MANNING        FAIR      64  57  77 MISG      29.72F
COLUMBIA       CLOUDY    67  55  65 S21G33    29.65F
SUMTER         PTCLDY    64  52  64 S18G28    29.67F
FLORENCE       PTCLDY    64  55  72 S16G25    29.69F
MYRTLE BEACH   PTCLDY    66  58  75 SW17G23   29.77F
N MYRTLE BEACH PTCLDY    65  60  84 SW18G29   29.75F

$$

GAZ063-065-086>088-099>101-113>116-118-119-134>141-150-190600-
...SOUTHEAST GEORGIA...

CITY           SKY/WX    TMP DP  RH WIND       PRES   REMARKS
SAVANNAH ARPT  CLEAR     65  56  72 SW13G22   29.83S
HUNTER AAF     CLEAR     64  56  76 SW9       29.81F
FORT STEWART   PTCLDY    65  57  76 S14       29.81F
STATESBORO     CLEAR     65  55  69 SW12      29.78F
SYLVANIA       CLEAR     64  58  81 SW6       29.78F
CLAXTON        FAIR      65  59  80 S5        29.80F

...CSRA...CENTRAL AND FAR SOUTHEAST GEORGIA...

CITY           SKY/WX    TMP DP  RH WIND       PRES   REMARKS
THOMSON        PTCLDY    66  58  74 W14G26    29.72F
AUGUSTA-BUSH   CLEAR     65  55  70 S16G22    29.69F
AUGUSTA-DANIEL CLEAR     66  55  67 S15G22    29.70F
SWAINSBORO     FAIR      64  59  82 NW10G17   29.78S
VIDALIA        CLEAR     64  59  82 S9G17     29.79F
EASTMAN        FAIR      67  54  64 SW12G20   29.81S
HAZLEHURST     FAIR      65  55  69 SW13G18   29.80F
ALMA           CLEAR     64  59  83 S9        29.83F
WAYCROSS       PTCLDY    62  60  90 SW10      29.84F
JESUP          FAIR      63  57  82 S8        29.84F
BAXLEY         FAIR      61  61 100 SW9       29.82F
BRUNSWICK      CLEAR     63  57  82 S10       29.87F
SAINT SIMONS   CLEAR     64  60  87 SW10      29.88F

$$

SCZ027-028-034-036>038-045-046-048>050-GAZ119-141-190600-
...LAKE AND SUPPLEMENTAL COASTAL OBSERVATIONS...

STATION/POSITION TIME  TEMP    WIND        PRES    WAVE   SWELL
                       AIR SEA DIR/SP/G            HT/PER HT/PER/DIR
                 (UTC) (F)     (DEG/KT/KT) (MB)    (FT/S) (FT/S/D)
WINYAH BAY       0430   65     220/ 13     1009.0S
LAKE MURRAY      0450   66     200/ 20/ 24 1003.0F
ACE BASIN NERRS  0445   64        CALM     1010.0S
FORT PULASKI     NOT AVBL
SAPELO ISLAND    0500   62     210/  9     1011.0

$$

ANZ835-935-AMZ111-154-330-350-352-354-370-450-454-472-190600-
...C-MAN AND BUOY OBSERVATIONS...

STATION/POSITION TIME  TEMP    WIND        PRES    WAVE   SWELL
                       AIR SEA DIR/SP/G            HT/PER HT/PER/DIR
                 (UTC) (F)     (DEG/KT/KT) (MB)    (FT/S) (FT/S/D)
BUOY 41004       0510   74 75  220/ 25/ 31 1009.5
BUOY 41008       0450   68 68  210/ 19/ 23 1011.2F   3/ 4   2/ 90/10
FOLLY BEACH CMAN 0500   66     210/ 18/ 20 1009.9F
CAPERS NEARSHORE 0508   64 63  220/ 17/ 25 1008.6F
FRIPP NEARSHORE  0508   63 62  200/ 16/ 27 1009.9R


STATION/POSITION TIME  TEMP    WIND        PRES    WAVE   SWELL
                       AIR SEA DIR/SP/G            HT/PER HT/PER/DIR
                 (UTC) (F)     (DEG/KT/KT) (MB)    (FT/S) (FT/S/D)
5E ST. MARYS GA  0500      65                N/A     2/11
FRYING PAN BUOY  0510   73 71  240/ 23/ 33 1008.5
BUOY 41025       0510   68     240/ 19/ 23 1007.6
CAPE LOOKOUT NC  0500          220/ 13/ 17 1008.1F
BUOY 41002       0450   73 76  200/ 17/ 23 1013.6F   4/ 9   3/ 30/ 9
BUOY 41010       NOT AVBL
ST AUGUSTINE FL  0500   62 68  240/  3/  4 1013.9R


$$



USA.gov is the U.S. government's official web portal to all federal, state and local government web resources and services.